Weather History for Atlantic, IA

Change the Weather History Date:

Wednesday, October 19, 2011

  Actual Average Record
Temperature  
Mean Temperature 40 °F -  
Max Temperature 51 °F 60 °F 82 °F (2000)
Min Temperature 30 °F 38 °F 28 °F (2013)
Degree Days  
Heating Degree Days 24    
Moisture  
Dew Point 25 °F    
Average Humidity 56    
Maximum Humidity 75    
Minimum Humidity 37    
Precipitation  
Precipitation 0.00 in - - ()
Sea Level Pressure  
Sea Level Pressure 30.05 in    
Wind  
Wind Speed 10 mph (NNW)    
Max Wind Speed 20 mph    
Max Gust Speed 29 mph    
Visibility 10 miles    
Events      
Averages and records for this station are not official NWS values.
T = Trace of Precipitation, MM = Missing Value Source: NWS Daily Summary

Daily Weather History Graph

Daily Weather History Graph

Search for Another Location

Airport:

Trip Planner

Search our weather history database for the weather conditions in past years. The results will help you decide how hot, cold, wet, or windy it might be!

Date:

Astronomy

Oct. 19, 2011 Rise Set
Actual Time 7:36 AM CDT 6:33 PM CDT
Civil Twilight 7:08 AM CDT 7:01 PM CDT
Nautical Twilight 6:36 AM CDT 7:33 PM CDT
Astronomical Twilight 6:04 AM CDT 8:05 PM CDT
Moon No Moon Rise 2:09 PM CDT (10/19)
Length of Visible Light 11h 53m
Length of Day
10h 57m
Waning Gibbous, 54% of the Moon is Illuminated
Oct 19
Waning Gibbous
Oct 19
Last Quarter
Oct 26
New
Nov 2
First Quarter
Nov 10
Full

Hourly Weather History & Observations

Time (CDT) Temp. Windchill Dew Point Humidity Pressure Visibility Wind Dir Wind Speed Gust Speed Precip Events Conditions
12:35 AM 33.8 °F 27.0 °F 21.2 °F 60% 30.05 in 10.0 mi NNW 8.1 mph - N/A   Clear
12:55 AM 33.8 °F 27.0 °F 21.2 °F 60% 30.05 in 10.0 mi North 8.1 mph - N/A   Clear
1:15 AM 33.8 °F 27.0 °F 21.2 °F 60% 30.04 in 10.0 mi NNW 8.1 mph - N/A   Clear
1:35 AM 33.8 °F 27.7 °F 21.2 °F 60% 30.04 in 10.0 mi North 6.9 mph - N/A   Clear
1:55 AM 33.8 °F 27.0 °F 21.2 °F 60% 30.04 in 10.0 mi NNW 8.1 mph - N/A   Clear
2:15 AM 33.8 °F 27.0 °F 21.2 °F 60% 30.04 in 10.0 mi North 8.1 mph - N/A   Clear
2:35 AM 33.8 °F 26.4 °F 21.2 °F 60% 30.04 in 10.0 mi North 9.2 mph - N/A   Clear
2:55 AM 33.8 °F 26.4 °F 21.2 °F 60% 30.04 in 10.0 mi North 9.2 mph - N/A   Clear
3:15 AM 32.0 °F 24.8 °F 21.2 °F 64% 30.04 in 10.0 mi North 8.1 mph - N/A   Clear
3:35 AM 32.0 °F 24.8 °F 21.2 °F 64% 30.03 in 10.0 mi NNW 8.1 mph - N/A   Clear
3:55 AM 32.0 °F 24.2 °F 21.2 °F 64% 30.04 in 10.0 mi NNW 9.2 mph - N/A   Clear
4:15 AM 30.2 °F 22.6 °F 21.2 °F 69% 30.04 in 10.0 mi NNW 8.1 mph - N/A   Clear
4:55 AM 30.2 °F 22.6 °F 21.2 °F 69% 30.04 in 10.0 mi NNW 8.1 mph - N/A   Clear
5:15 AM 30.2 °F 21.9 °F 21.2 °F 69% 30.05 in 10.0 mi NNW 9.2 mph - N/A   Clear
5:35 AM 30.2 °F 22.6 °F 21.2 °F 69% 30.05 in 10.0 mi NNW 8.1 mph - N/A   Clear
5:55 AM 30.2 °F 22.6 °F 21.2 °F 69% 30.05 in 10.0 mi NNW 8.1 mph - N/A   Clear
6:15 AM 30.2 °F 22.6 °F 21.2 °F 69% 30.05 in 10.0 mi NNW 8.1 mph - N/A   Clear
6:35 AM 30.2 °F 22.6 °F 21.2 °F 69% 30.06 in 10.0 mi NNW 8.1 mph - N/A   Clear
6:55 AM 30.2 °F 21.9 °F 21.2 °F 69% 30.06 in 10.0 mi NNW 9.2 mph - N/A   Clear
7:35 AM 30.2 °F 21.9 °F 21.2 °F 69% 30.06 in 10.0 mi NNW 9.2 mph - N/A   Clear
7:55 AM 30.2 °F 21.3 °F 21.2 °F 69% 30.07 in 10.0 mi NNW 10.4 mph - N/A   Clear
8:15 AM 30.2 °F 20.8 °F 23.0 °F 75% 30.07 in 10.0 mi NNW 11.5 mph - N/A   Clear
8:35 AM 32.0 °F 23.6 °F 23.0 °F 69% 30.08 in 10.0 mi NNW 10.4 mph - N/A   Clear
9:15 AM 33.8 °F 26.4 °F 24.8 °F 70% 30.09 in 10.0 mi North 9.2 mph 16.1 mph N/A   Overcast
9:35 AM 35.6 °F 28.0 °F 24.8 °F 65% 30.09 in 10.0 mi NNW 10.4 mph - N/A   Overcast
9:55 AM 37.4 °F 28.5 °F 26.6 °F 65% 30.08 in 10.0 mi North 15.0 mph - N/A   Overcast
10:15 AM 37.4 °F 28.5 °F 26.6 °F 65% 30.08 in 10.0 mi NNW 15.0 mph 18.4 mph N/A   Overcast
10:35 AM 39.2 °F 30.5 °F 26.6 °F 61% 30.09 in 10.0 mi NNW 16.1 mph - N/A   Overcast
11:15 AM 42.8 °F 35.8 °F 28.4 °F 57% 30.09 in 10.0 mi North 13.8 mph - N/A   Overcast
11:35 AM 44.6 °F 37.8 °F 30.2 °F 57% 30.08 in 10.0 mi North 15.0 mph 23.0 mph N/A   Mostly Cloudy
12:15 PM 44.6 °F 36.9 °F 28.4 °F 53% 30.09 in 10.0 mi North 18.4 mph 24.2 mph N/A   Overcast
12:35 PM 46.4 °F 39.8 °F 28.4 °F 50% 30.08 in 10.0 mi North 16.1 mph - N/A   Overcast
12:55 PM 46.4 °F 39.5 °F 28.4 °F 50% 30.07 in 10.0 mi North 17.3 mph 23.0 mph N/A   Overcast
1:15 PM 46.4 °F 39.5 °F 28.4 °F 50% 30.07 in 10.0 mi North 17.3 mph - N/A   Overcast
1:35 PM 48.2 °F - 28.4 °F 46% 30.06 in 10.0 mi North 17.3 mph 23.0 mph N/A   Mostly Cloudy
1:55 PM 48.2 °F - 28.4 °F 46% 30.05 in 10.0 mi NNW 17.3 mph - N/A   Mostly Cloudy
2:15 PM 48.2 °F - 26.6 °F 43% 30.05 in 10.0 mi NNW 15.0 mph - N/A   Scattered Clouds
2:55 PM 51.8 °F - 26.6 °F 38% 30.04 in 10.0 mi NNW 19.6 mph 24.2 mph N/A   Mostly Cloudy
3:15 PM 50.0 °F - 26.6 °F 40% 30.04 in 10.0 mi North 18.4 mph 23.0 mph N/A   Mostly Cloudy
3:35 PM 50.0 °F - 26.6 °F 40% 30.04 in 10.0 mi NW 15.0 mph 25.3 mph N/A   Scattered Clouds
3:55 PM 50.0 °F - 26.6 °F 40% 30.04 in 10.0 mi NNW 13.8 mph 23.0 mph N/A   Scattered Clouds
4:15 PM 50.0 °F - 24.8 °F 37% 30.04 in 10.0 mi NNW 17.3 mph 28.8 mph N/A   Scattered Clouds
4:35 PM 50.0 °F - 24.8 °F 37% 30.04 in 10.0 mi NNW 12.7 mph - N/A   Scattered Clouds
4:55 PM 50.0 °F - 24.8 °F 37% 30.04 in 10.0 mi NNW 15.0 mph - N/A   Scattered Clouds
5:15 PM 48.2 °F - 24.8 °F 40% 30.04 in 10.0 mi North 15.0 mph 19.6 mph N/A   Scattered Clouds
5:35 PM 48.2 °F - 26.6 °F 43% 30.04 in 10.0 mi North 13.8 mph - N/A   Mostly Cloudy
5:55 PM 46.4 °F 40.4 °F 26.6 °F 46% 30.04 in 10.0 mi NNW 13.8 mph - N/A   Mostly Cloudy
6:15 PM 46.4 °F 40.4 °F 26.6 °F 46% 30.05 in 10.0 mi NNW 13.8 mph 17.3 mph N/A   Overcast
6:35 PM 46.4 °F 40.7 °F 26.6 °F 46% 30.05 in 10.0 mi NNW 12.7 mph - N/A   Overcast
6:55 PM 46.4 °F 41.9 °F 28.4 °F 50% 30.05 in 10.0 mi NNW 9.2 mph - N/A   Overcast
7:15 PM 44.6 °F 40.7 °F 28.4 °F 53% 30.05 in 10.0 mi NNW 6.9 mph - N/A   Overcast
7:35 PM 44.6 °F 39.7 °F 28.4 °F 53% 30.05 in 10.0 mi NNW 9.2 mph - N/A   Overcast
7:55 PM 42.8 °F 38.0 °F 28.4 °F 57% 30.05 in 10.0 mi NW 8.1 mph - N/A   Overcast
8:15 PM 44.6 °F 39.7 °F 28.4 °F 53% 30.05 in 10.0 mi NW 9.2 mph - N/A   Overcast
8:35 PM 44.6 °F 39.7 °F 28.4 °F 53% 30.05 in 10.0 mi NW 9.2 mph - N/A   Overcast
8:55 PM 44.6 °F 40.2 °F 28.4 °F 53% 30.06 in 10.0 mi NNW 8.1 mph - N/A   Overcast
9:15 PM 44.6 °F 39.7 °F 28.4 °F 53% 30.05 in 10.0 mi NNW 9.2 mph - N/A   Overcast
9:35 PM 44.6 °F 40.2 °F 28.4 °F 53% 30.05 in 10.0 mi NW 8.1 mph - N/A   Overcast
9:55 PM 42.8 °F 37.5 °F 28.4 °F 57% 30.06 in 10.0 mi NW 9.2 mph - N/A   Overcast
10:15 PM 44.6 °F 39.7 °F 30.2 °F 57% 30.05 in 10.0 mi NNW 9.2 mph - N/A   Overcast
10:35 PM 44.6 °F 38.8 °F 30.2 °F 57% 30.05 in 10.0 mi North 11.5 mph - N/A   Overcast
10:55 PM 44.6 °F 39.7 °F 30.2 °F 57% 30.06 in 10.0 mi North 9.2 mph - N/A   Overcast
11:15 PM 44.6 °F 38.1 °F 30.2 °F 57% 30.05 in 10.0 mi North 13.8 mph 19.6 mph N/A   Overcast
11:35 PM 44.6 °F 39.7 °F 30.2 °F 57% 30.04 in 10.0 mi North 9.2 mph - N/A   Overcast
11:55 PM 44.6 °F 38.1 °F 28.4 °F 53% 30.04 in 10.0 mi North 13.8 mph - N/A   Overcast